EW9081 Weather Reports


time (UTC)temp
F
wind
direction
speed
knots
gust
knots
rain 1hr
in
rain 24hr
in
rain mn
in
humidity
%
barometer
mb
20220627195409 84 34 1.7 4.3 0.00 0.00 0.00 48 1012.4
20220627194409 83 55 0.9 2.6 0.00 0.00 0.00 47 1012.4
20220627193409 83 29 1.7 3.5 0.00 0.00 0.00 48 1012.5
20220627192409 83 30 0.9 3.5 0.00 0.00 0.00 52 1012.5
20220627191409 82 35 1.7 3.5 0.00 0.00 0.00 53 1012.5
20220627190409 82 22 0.9 3.5 0.00 0.00 0.00 52 1012.5
20220627185411 81 289 1.7 4.3 0.00 0.00 0.00 54 1012.6
20220627184410 80 277 1.7 4.3 0.00 0.00 0.00 52 1012.6
20220627183407 80 289 0.9 3.5 0.00 0.00 0.00 49 1012.8
20220627182409 80 271 0.9 3.5 0.00 0.00 0.00 50 1012.8
20220627181407 79 47 1.7 3.5 0.00 0.00 0.00 49 1012.9
20220627180407 80 12 0.9 3.5 0.00 0.00 0.00 50 1012.8
20220627175407 79 165 0.9 3.5 0.00 0.00 0.00 52 1012.9
20220627174409 79 126 0.9 3.5 0.00 0.00 0.00 47 1012.9
20220627173405 78 117 0.9 4.3 0.00 0.00 0.00 52 1013.0
20220627172405 78 169 0.9 4.3 0.00 0.00 0.00 53 1012.9
20220627171405 78 32 0.9 2.6 0.00 0.00 0.00 52 1012.9
20220627170405 77 34 0.9 2.6 0.00 0.00 0.00 47 1013.0
20220627165405 76 273 0.9 1.7 0.00 0.00 0.00 47 1013.0
20220627164404 74 272 0.9 2.6 0.00 0.00 0.00 50 1013.1
20220627163403 73 292 0.9 2.6 0.00 0.00 0.00 59 1013.3
20220627162403 72 292 0.9 2.6 0.00 0.00 0.00 57 1013.3
20220627161408 71 267 0.9 2.6 0.00 0.00 0.00 58 1013.2
20220627160402 70 238 0.9 3.5 0.00 0.00 0.00 58 1013.2
20220627155403 69 294 0.9 2.6 0.00 0.00 0.00 59 1013.2
20220627154407 69 294 0.9 3.5 0.00 0.00 0.00 62 1013.3
20220627153401 69 258 0.9 2.6 0.00 0.00 0.00 60 1013.4
20220627152402 67 24 0.9 2.6 0.00 0.00 0.00 64 1013.4
20220627151402 66 290 0.9 2.6 0.00 0.00 0.00 68 1013.5
20220627150401 64 267 0.9 1.7 0.00 0.00 0.00 70 1013.5
20220627145400 62 267 0.9 2.6 0.00 0.00 0.00 73 1013.5
20220627144401 60 250 0.9 2.6 0.00 0.00 0.00 78 1013.6
20220627143400 59 250 0.9 3.5 0.00 0.00 0.00 78 1013.7
20220627142400 58 232 0.9 2.6 0.00 0.00 0.00 79 1013.7
20220627141402 58 260 0.9 3.5 0.00 0.00 0.00 80 1013.7
20220627140400 57 275 0.9 2.6 0.00 0.00 0.00 81 1013.6
20220627135401 56 293 0.9 3.5 0.00 0.00 0.00 81 1013.7
20220627134401 55 264 0.0 1.7 0.00 0.00 0.00 85 1013.6
20220627133403 55 264 0.0 0.0 0.00 0.00 0.00 85 1013.6
20220627132402 55 264 0.0 1.7 0.00 0.00 0.00 86 1013.6
20220627131358 55 264 0.0 0.9 0.00 0.00 0.00 84 1013.5
20220627130359 55 264 0.0 0.9 0.00 0.00 0.00 83 1013.4
20220627125359 56 264 0.0 0.9 0.00 0.00 0.00 81 1013.4
20220627124359 56 264 0.0 0.9 0.00 0.00 0.00 78 1013.3
20220627123359 57 264 0.0 0.9 0.00 0.00 0.00 76 1013.1
20220627122359 58 264 0.0 1.7 0.00 0.00 0.00 74 1013.0
20220627121358 59 264 0.0 2.6 0.00 0.00 0.00 70 1012.9
20220627120359 59 271 0.9 2.6 0.00 0.00 0.00 68 1012.9
20220627115359 60 281 1.7 4.3 0.00 0.00 0.00 67 1012.9
20220627114358 60 280 1.7 7.0 0.00 0.00 0.00 67 1012.9
20220627113359 60 249 1.7 5.2 0.00 0.00 0.00 68 1012.9
20220627112401 60 273 2.6 7.0 0.00 0.00 0.00 68 1012.8
20220627111358 60 225 1.7 5.2 0.00 0.00 0.00 69 1012.8
20220627110359 60 254 1.7 5.2 0.00 0.00 0.00 68 1012.8
20220627105357 60 262 2.6 7.8 0.00 0.00 0.00 68 1012.8
20220627104358 60 279 1.7 6.1 0.00 0.00 0.00 68 1012.9
20220627103358 61 250 2.6 7.8 0.00 0.00 0.00 67 1012.8
20220627102358 61 284 1.7 5.2 0.00 0.00 0.00 67 1012.7
20220627101356 61 313 1.7 6.1 0.00 0.00 0.00 68 1012.8
20220627100354 61 219 1.7 4.3 0.00 0.00 0.00 69 1012.9
20220627095354 61 257 2.6 7.0 0.00 0.00 0.00 69 1012.8
20220627094356 60 251 1.7 7.0 0.00 0.00 0.00 70 1012.8
20220627093352 60 231 0.9 2.6 0.00 0.00 0.00 71 1013.0
20220627092352 61 182 0.0 1.7 0.00 0.00 0.00 71 1013.0
20220627091350 62 181 0.9 2.6 0.00 0.00 0.00 68 1013.1
20220627090352 62 231 0.9 3.5 0.00 0.00 0.00 65 1013.1
20220627085344 62 249 2.6 9.6 0.00 0.00 0.00 65 1013.0
20220627084344 62 227 3.5 9.6 0.00 0.00 0.00 66 1012.9
20220627083346 63 238 3.5 10.4 0.00 0.00 0.00 66 1012.9
20220627082344 63 260 3.5 8.7 0.00 0.00 0.00 67 1012.9
20220627081344 63 260 4.3 8.7 0.00 0.00 0.00 68 1012.8
20220627080342 62 210 3.5 7.8 0.00 0.00 0.00 69 1012.8
20220627075342 62 240 2.6 7.8 0.00 0.00 0.00 70 1012.7
20220627074340 62 216 2.6 7.0 0.00 0.00 0.00 70 1012.7
20220627073341 62 300 1.7 7.0 0.00 0.00 0.00 69 1012.7
20220627072340 63 235 2.6 7.8 0.00 0.00 0.00 69 1012.7
20220627071340 63 198 2.6 9.6 0.00 0.00 0.00 69 1012.8
20220627070340 63 213 4.3 9.6 0.00 0.00 0.00 69 1012.7
20220627065338 63 241 3.5 10.4 0.00 0.00 0.00 69 1012.7
20220627064336 64 279 3.5 8.7 0.00 0.00 0.00 69 1012.6
20220627063337 64 229 3.5 8.7 0.00 0.00 0.00 68 1012.6
20220627062334 64 257 3.5 8.7 0.00 0.00 0.00 68 1012.6
20220627061334 65 262 3.5 9.6 0.00 0.00 0.00 67 1012.5
20220627060334 65 254 3.5 7.8 0.00 0.00 0.00 67 1012.5
20220627055335 65 273 2.6 11.3 0.00 0.00 0.00 66 1012.4
20220627054334 66 275 3.5 8.7 0.00 0.00 0.00 65 1012.5
20220627053334 66 222 3.5 9.6 0.00 0.00 0.00 65 1012.5
20220627052335 67 276 2.6 7.8 0.00 0.00 0.00 64 1012.3
20220627051336 67 214 3.5 9.6 0.00 0.00 0.00 64 1012.3
20220627050334 67 257 2.6 9.6 0.00 0.00 0.00 63 1012.3
20220627045334 68 223 1.7 7.0 0.00 0.00 0.00 62 1012.1
20220627044335 68 238 2.6 7.8 0.00 0.00 0.00 60 1011.9
20220627043337 69 230 2.6 8.7 0.00 0.00 0.00 59 1012.0
20220627042334 70 307 2.6 8.7 0.00 0.00 0.00 57 1012.0
20220627041332 71 207 3.5 12.2 0.00 0.00 0.00 55 1011.8
20220627040332 72 227 2.6 12.2 0.00 0.00 0.00 52 1011.8
20220627035332 73 283 3.5 8.7 0.00 0.00 0.00 50 1011.7
20220627034336 74 212 3.5 11.3 0.00 0.00 0.00 48 1011.8
20220627033332 75 267 3.5 10.4 0.00 0.00 0.00 47 1011.8
20220627032330 76 226 4.3 9.6 0.00 0.00 0.00 47 1011.7
20220627031330 77 214 3.5 8.7 0.00 0.00 0.00 46 1011.6
20220627030332 78 273 2.6 7.0 0.00 0.00 0.00 46 1011.5
20220627025331 80 264 4.3 9.6 0.00 0.00 0.00 45 1011.4
20220627024330 80 212 4.3 10.4 0.00 0.00 0.00 43 1011.3
20220627023328 81 240 4.3 10.4 0.00 0.00 0.00 42 1011.2
20220627022329 82 248 3.5 8.7 0.00 0.00 0.00 42 1011.1
20220627021328 83 221 3.5 9.6 0.00 0.00 0.00 43 1011.0
20220627020328 84 273 3.5 8.7 0.00 0.00 0.00 42 1010.9
20220627015330 85 232 3.5 8.7 0.00 0.00 0.00 41 1010.9
20220627014326 86 282 3.5 7.8 0.00 0.00 0.00 44 1010.8
20220627013326 88 304 2.6 7.8 0.00 0.00 0.00 40 1010.8
20220627012325 90 254 2.6 7.8 0.00 0.00 0.00 41 1010.7
20220627011326 94 244 2.6 8.7 0.00 0.00 0.00 35 1010.6
20220627010323 98 150 0.0 0.9 0.00 0.00 0.00 33 1010.6
20220627005322 97 150 0.0 0.9 0.00 0.00 0.00 30 1010.5
20220627004319 97 150 0.0 1.7 0.00 0.00 0.00 31 1010.5
20220627003318 96 150 0.9 2.6 0.00 0.00 0.00 28 1010.5
20220627002317 96 20 0.0 1.7 0.00 0.00 0.00 32 1010.5
20220627001317 96 17 0.9 3.5 0.00 0.00 0.00 26 1010.6
20220627000319 95 63 0.9 2.6 0.00 0.00 0.00 32 1010.6
20220626235318 96 55 0.9 2.6 0.00 0.00 0.00 31 1010.8
20220626234315 96 50 0.9 4.3 0.00 0.00 0.00 31 1010.8
20220626233317 95 127 0.9 2.6 0.00 0.00 0.00 27 1010.9
20220626232315 95 24 0.9 2.6 0.00 0.00 0.00 29 1010.9
20220626231316 95 229 0.9 2.6 0.00 0.00 0.00 33 1011.0
20220626230316 95 113 0.9 4.3 0.00 0.00 0.00 30 1011.1
20220626225316 95 217 0.9 2.6 0.00 0.00 0.00 27 1011.1
20220626224316 95 158 0.9 2.6 0.00 0.00 0.00 34 1011.1
20220626223316 94 134 0.9 4.3 0.00 0.00 0.00 31 1011.1
20220626222316 94 109 0.9 3.5 0.00 0.00 0.00 33 1011.2
20220626221316 94 183 0.9 2.6 0.00 0.00 0.00 33 1011.3
20220626220318 93 328 0.9 2.6 0.00 0.00 0.00 36 1011.3
20220626215315 93 268 0.9 2.6 0.00 0.00 0.00 35 1011.3
20220626214316 92 168 0.9 3.5 0.00 0.00 0.00 33 1011.5
20220626213315 92 32 0.9 2.6 0.00 0.00 0.00 36 1011.5
20220626212315 92 267 0.9 2.6 0.00 0.00 0.00 36 1011.6
20220626211315 91 174 1.7 3.5 0.00 0.00 0.00 36 1011.7
20220626210316 91 179 1.7 5.2 0.00 0.00 0.00 40 1011.7
20220626205315 90 26 1.7 5.2 0.00 0.00 0.00 42 1011.8
20220626204315 89 215 0.9 3.5 0.00 0.00 0.00 33 1011.9
20220626203316 89 45 2.6 6.1 0.00 0.00 0.00 35 1011.9
20220626202316 89 16 1.7 4.3 0.00 0.00 0.00 38 1012.0
20220626201315 89 20 0.9 4.3 0.00 0.00 0.00 37 1012.1
20220626200315 88 205 0.9 2.6 0.00 0.00 0.00 35 1012.1